星链-33840 (STARLINK-33840)

导读 | 豆包AI

STARLINK-33840是美国太空探索技术公司SpaceX于2025年4月28日发射的星链低轨互联网通信卫星,隶属于第二代星链(Gen2)星座。它配备相控阵天线与激光星间链路,可为地面提供高速卫星互联网接入,支持手机直连、海事航空通信及应急通信等服务,是星链全球宽带组网建设的组成部分。

Basic Information
目录编号:
63682
目录名称:
STARLINK-33840
国际标识:
2025-085U
轨道中心:
EARTH
卫星名称:
星链-33840
卫星全名:
星链-33840 (STARLINK-33840)
卫星状态:
在轨 (已飞行320 天)
发射日期:
2025-04-28 UTC
国别 :
美国 (US)
星等 :
--
Orbit Information
数据来源 国际轨道数据 AOE轨道数据
星历时间 2026-03-14T10:34:25+0800
21小时前
查看轨道信息
2026-03-13T17:00:00+0800
1天前
查看轨道信息
半长轴 6861.089km 6861.227km
偏心率 0.0000721 0.000136
轨道倾角 43.001° 43.002°
近地点辐角 247.975° 252.988°
升交点赤经 6.127° 10.270°
平近点角 112.103° 35.575°
近地点 482.457km 482.156km
远地点 483.447km 484.024km
周期 94.265分钟 94.268分钟
每日圈数 15.276125 15.275665
Detailed Information
固有亮度:
5
最大亮度:
2.5
卫星平台:
Starlink V1.0
覆盖范围:
全球
运营商:
太空探索技术公司
运营商所在国:
美国
制造商(研发单位):
太空探索技术公司
制造商所在国:
美国
使用方式:
暂无
Satellite Introduction
Starlink 计划是 SpaceX 推出的全球卫星互联网项目,通过发射低轨道卫星,为全球尤其是偏远地区提供高速、低延迟的互联网服务。自 2019 年起,Starlink 已部署数千颗卫星,旨在缩小全球数字鸿沟,推动互联网普及。该项目还为军事、航空等行业提供通信支持,带来广泛经济效益。
2D Orbit Map
3D Orbit Map
Orbit Altitude Analysis Chart
Orbit Inclination Analysis Chart
Orbit Comprehensive Analysis Chart
View Comprehensive Chart